AirNav   Everest Fuels
 
 388 users online  

50M Puckett Gliderport
Eagleville, Tennessee, USA

GOING TO EAGLEVILLE?


FAA INFORMATION EFFECTIVE 28 MARCH 2019

Location

FAA Identifier: 50M
Lat/Long: 35-41-22.0000N / 086-36-54.0000W
35-41.366667N / 086-36.900000W
35.6894444 / -86.6150000
(estimated)
Elevation: 780 ft. / 238 m (estimated)
Variation: 01W (1985)
From city: 4 miles SE of EAGLEVILLE, TN
Time zone: UTC -5 (UTC -6 during Standard Time)
Zip code: 37060

Gliderport Operations

Gliderport use: Open to the public
Control tower: no
ARTCC: MEMPHIS CENTER
FSS: NASHVILLE FLIGHT SERVICE STATION
NOTAMs facility: BNA (NOTAM-D service available)
Attendance: SAT-SUN IREG
Wind indicator: yes
Segmented circle: no

Gliderport Communications

CTAF: 122.9
WX AWOS-3 at SYI (11 nm SE): 119.275 (931-685-4723)
WX AWOS-3 at LUG (14 nm SW): 135.775 (931-270-1014)
WX AWOS-3 at MBT (16 nm NE): 133.975 (615-849-2622)
WX AWOS-3PT at MQY (20 nm N): 119.125 (615-223-7716)

Nearby radio navigation aids

VOR radial/distance  VOR name  Freq  Var
SYIr313/11.5SHELBYVILLE VOR/DME109.0001W
BNAr175/27.1NASHVILLE VORTAC114.1002W

 
NDB name  Hdg/Dist  Freq  Var  ID
WALTER HILL218/20.237102WFQW ..-. --.- .--
BURWI310/22.833203WULH ..- .-.. ....

Gliderport Services

Parking: tiedowns
Airframe service: NONE
Powerplant service: NONE
Bottled oxygen: NONE
Bulk oxygen: NONE

Runway Information

Runway 14/32

Dimensions: 2200 x 145 ft. / 671 x 44 m
Surface: turf, in good condition
Runway edge markings: RY 14/32 & DSPLCD THLD MKD WITH 3 FT WHITE CONES.
RUNWAY 14  RUNWAY 32
Traffic pattern: rightleft
Displaced threshold: 600 ft.no
Markings: basic, in good conditionbasic, in good condition
Obstructions: 71 ft. tree, 865 ft. from runway, 112 ft. right of centerline, 12:1 slope to clear
APCH RATIO 59:1 TO DISPLACED THRESHOLD.
60 ft. trees, 665 ft. from runway, 68 ft. left of centerline, 11:1 slope to clear

Gliderport Ownership and Management from official FAA records

Ownership: Privately-owned
Owner: BENTON AND JANICE POORE, JR.
4850 HWY 41A
EAGLEVILLE, TN 37060
Phone 615-274-2449
Manager: RON TUTTLE
4689 HWY 41A
EAGLEVILLE, TN 37060
Phone 800-306-6690

Gliderport Operational Statistics

Aircraft based on the field: 12
Single engine airplanes: 4
Gliders airplanes: 8
    
Aircraft operations: avg 56/week *
97% local general aviation
3% transient general aviation
* for 12-month period ending 31 August 2017

Additional Remarks

GLIDERPORT-POWERED ACFT WELCOME.
MILITARY ACTIVITY& MANEUVERS PROHIBITED.
FREQ 123.5 USED FOR GLIDER TRAINING.
PAEW ON RAMPS ON WEEKENDS.
FOR CD CTC BNA APCH AT 615-695-4522.

Instrument Procedures

There are no published instrument procedures at 50M.

Some nearby airports with instrument procedures:

KSYI - Bomar Field-Shelbyville Municipal Airport (11 nm SE)
KLUG - Ellington Airport (14 nm SW)
KMBT - Murfreesboro Municipal Airport (16 nm NE)
KMQY - Smyrna Airport (20 nm N)
KTHA - Tullahoma Regional Airport/William Northern Field (26 nm SE)
 
Loc | Ops | Rwys | IFR | FBO | Links
Com | Nav | Svcs | Stats | Notes
Area around 50M (Puckett Gliderport)
 
Road maps at: MapQuest Bing Google
 
Aerial photo
No photo
 
Sectional chart

 
Airport distance calculator
Flying to Puckett Gliderport? Find the distance to fly.

From to 50M

Sunrise and sunset
Times for 19-Apr-2019
 Local
(UTC-5)
 Zulu
(UTC)
Morning civil twilight05:4310:43
Sunrise06:1011:10
Sunset19:2200:22
Evening civil twilight19:4800:48

Current date and time
Zulu (UTC)  19-Apr-2019 09:34:00
Local (UTC-5)  19-Apr-2019 04:34:00
 
METAR
KSYI 
11nm SE 
190915Z AUTO 20004KT 10SM BKN008 OVC013 15/15 A2950 RMK A01
KLUG 
14nm SW 
190915Z AUTO 00000KT 9SM OVC007 15/14 A2948 RMK A01
KMBT 
16nm NE 
190915Z AUTO 00000KT 4SM BR BKN005 OVC011 15/14 A2948 RMK A01
KMQY 
20nm N 
190919Z AUTO 13003KT 10SM -RA OVC014 14/14 A2951 RMK AO2 RAB10 P0000
TAF
NOTAMs
Click for the latest NOTAMs
NOTAMs are issued by the DoD/FAA and will open in a separate window not controlled by AirNav.

 

 
 

Would you like to see your business listed on this page?

 If your business provides an interesting product or service to pilots, flight crews, aircraft, or users of the Puckett Gliderport, you should consider listing it here.  To start the listing process, click on the button below
 
Add a business
 

Other Pages about Puckett Gliderport

Update a link
 
Copyright © AirNav, LLC. All rights reserved. Privacy Policy  Contact